Location: Bergnershof
(48.9468°N, 10.9431°E)
Time: 09:45:40
(UTC+00:00)

Cosmos 1959 Rocket - Pass Details

Date: 03 March 2021
Orbit: 948 x 996 km, 83.0° (Epoch: 12 April)

Event Time Altitude Azimuth Distance (km) Brightness Sun altitude
Rises 19:10:36 0° 185° (S) 3,608 7.4 -21.6°
Reaches altitude 10° 19:13:04 10° 185° (S) 2,666 6.7 -22.0°
Maximum altitude 19:19:10 86° 97° (E) 959 4.3 -22.9°
Drops below altitude 10° 19:25:19 10° 10° (N) 2,691 6.9 -23.9°
Sets 19:27:50 0° 10° (N) 3,645 7.6 -24.3°
